Wind_Speed
8 13 16 18 20 22 22 22 19 18 15 13 12 10 9 7 6 5 4 2 2 1 1 0 1 2 3 4 4 4 4 5 5 5 6 6 7 8 8 9 10 10 12
6 10 13 15 18 20 19 18 17 16 14 14 12 10 9 8 6 5 4 3 2 2 1 0 1 2 3 4 4 4 4 5 5 5 6 6 7 8 8 9 10 10 11
4 8 11 12 15 16 17 17 17 16 15 13 12 11 9 8 7 6 5 4 3 2 1 1 1 2 3 4 4 4 5 5 5 5 6 7 8 8 9 9 10 11 12
2 6 9 11 13 16 16 16 17 16 15 13 12 11 9 8 7 6 5 4 4 3 2 1 1 1 2 3 4 4 5 5 6 6 7 8 9 10 10 10 11 11 12
2 4 7 10 12 13 14 15 16 15 14 13 11 10 9 8 7 6 6 5 4 3 3 2 2 3 3 4 4 5 6 6 7 7 8 9 10 10 11 11 12 12 13
1 4 6 9 10 11 13 14 14 13 12 12 11 10 9 8 7 7 6 5 5 4 4 4 4 5 5 6 6 7 7 8 9 9 10 10 11 12 12 13 14 14 15
1 3 5 7 9 10 12 13 13 12 12 11 11 10 9 8 8 7 7 6 6 6 6 6 7 7 8 8 9 9 10 10 11 12 12 13 14 14 15 15 16 16 17
2 1 4 5 7 10 11 13 13 12 11 11 11 10 10 9 9 9 8 8 8 9 9 9 9 10 11 11 11 12 12 13 13 14 14 15 16 17 18 18 19 19 19
1 1 3 4 6 7 10 12 13 12 11 11 11 11 11 11 11 10 10 10 11 12 12 12 13 13 13 14 15 15 16 16 16 17 17 18 18 19 19 20 21 21 22
2 2 3 4 6 7 9 11 11 11 11 11 11 12 12 13 13 13 13 13 14 15 15 16 16 17 17 17 18 19 19 19 19 19 20 20 20 20 21 22 22 23 24
4 3 4 6 7 8 9 10 11 11 12 12 13 14 14 15 15 16 16 17 18 18 19 19 20 20 20 21 21 22 22 22 22 23 23 23 23 23 24 24 25 25 25
7 6 6 7 8 9 11 12 13 13 14 15 15 16 17 17 18 19 19 20 21 22 22 23 23 23 23 24 24 24 25 25 25 25 25 26 26 26 26 26 27 27 27
10 10 10 9 10 11 12 13 15 16 16 17 18 19 19 20 21 22 22 23 24 25 25 26 26 26 26 26 27 27 27 28 28 28 28 28 28 28 28 28 28 28 28
12 12 12 12 13 14 14 15 16 17 18 19 20 21 22 23 24 24 25 26 26 27 28 28 29 29 28 29 29 29 30 30 30 30 29 30 30 31 31 31 31 31 31
14 14 14 15 16 16 17 17 18 18 20 21 22 24 25 25 26 27 28 28 29 30 31 31 31 31 31 31 31 32 32 32 32 32 32 32 32 33 33 34 33 33 33
16 16 17 18 19 19 20 20 21 21 22 23 24 25 26 27 28 29 29 30 31 32 33 32 32 33 33 33 34 34 34 34 34 34 34 35 35 35 36 36 36 36 36
20 20 20 21 22 22 23 24 24 24 24 25 26 27 28 29 30 31 31 32 33 34 34 34 34 34 35 36 37 37 37 37 36 37 38 38 39 38 39 39 39 39 39
24 24 25 25 25 25 26 27 28 28 28 28 29 30 31 32 33 33 34 35 36 36 37 37 37 37 38 39 40 41 42 41 41 41 42 42 42 42 43 43 42 42 42
26 27 28 28 28 28 29 30 31 32 32 33 33 33 34 35 36 36 37 38 39 39 40 40 41 41 42 42 43 45 45 46 46 46 46 46 46 46 47 47 46 46 45
26 28 29 29 30 30 31 33 34 34 34 35 36 36 36 37 38 39 40 41 42 42 43 43 44 45 45 46 47 49 50 51 50 50 50 50 49 50 51 51 51 49 48
26 28 29 30 31 32 32 33 34 35 35 35 36 37 37 39 40 41 42 43 44 44 45 47 48 48 49 50 51 53 53 54 54 54 53 53 53 53 54 55 54 53 52
26 27 29 31 33 33 32 33 34 35 36 36 37 39 39 40 42 43 44 44 45 47 48 49 51 52 52 53 54 56 57 57 58 57 57 57 57 57 57 58 57 57 57
27 28 29 31 32 32 32 33 33 34 36 38 39 40 40 42 43 44 45 46 47 49 50 52 53 54 55 56 57 58 60 61 62 62 62 62 62 62 61 61 60 60 60
28 29 29 30 31 31 31 33 34 35 36 37 38 39 41 42 44 45 47 48 50 51 52 54 56 57 58 60 61 63 64 65 65 66 66 66 65 65 65 65 64 63 63
28 29 29 30 31 32 33 34 35 36 38 39 40 41 42 44 45 47 48 50 52 54 56 58 59 61 62 64 66 67 68 69 69 70 70 69 69 69 68 68 67 66 65
30 30 31 32 32 33 35 36 37 38 39 41 42 43 44 46 48 49 51 53 56 58 60 62 63 65 66 68 69 70 70 70 71 71 71 70 69 69 68 68 67 66 66
Wind_Direction
216 210 205 207 207 206 207 209 209 209 205 204 204 204 202 198 197 200 207 213 212 218 235 275 339 347 349 348 346 343 337 331 325 320 313 306 301 298 294 289 283 278 274
227 212 208 207 210 208 206 204 198 200 200 202 202 201 198 196 197 198 198 198 198 192 186 168 26 9 6 1 358 352 343 336 333 329 323 317 312 306 300 296 290 285 280
221 207 200 197 199 198 196 195 193 196 199 200 202 200 197 196 196 195 198 201 195 188 193 205 347 2 1 356 356 355 350 345 338 332 324 319 315 311 307 302 297 291 285
226 193 191 195 193 188 190 195 195 197 199 198 198 197 196 195 194 197 200 200 199 204 212 231 276 331 342 347 348 348 344 338 333 332 328 321 315 311 308 305 300 294 290
175 177 178 185 187 190 194 193 194 196 197 196 195 195 197 197 197 202 204 206 213 221 229 244 272 298 311 319 324 326 325 324 323 323 321 319 317 313 309 305 301 296 293
140 172 178 180 186 188 191 189 191 193 195 197 198 199 201 203 206 210 213 218 228 239 251 262 276 288 294 299 304 307 309 310 310 311 312 312 312 311 309 305 301 296 293
65 158 174 186 194 197 195 196 196 195 197 201 205 205 209 212 216 221 226 232 242 251 260 269 278 283 286 290 294 297 298 301 303 304 305 305 306 306 306 305 302 298 294
30 145 171 183 198 204 203 202 202 205 206 209 212 215 220 224 230 235 240 247 253 259 265 271 276 279 283 286 289 292 293 295 296 298 299 300 301 301 302 302 301 298 296
7 207 202 205 208 208 209 208 212 214 214 216 221 227 232 237 241 245 249 256 261 265 269 272 275 278 281 284 286 288 289 291 292 292 294 295 297 297 298 299 298 297 295
333 262 228 222 222 220 217 213 216 219 221 225 231 237 243 247 250 253 256 261 266 269 272 274 275 277 280 282 283 285 287 288 289 290 292 293 293 293 293 294 295 295 293
289 290 262 242 236 233 230 228 227 229 232 236 241 245 250 254 256 259 262 265 268 271 274 275 276 278 279 281 283 285 285 286 287 288 290 291 292 292 293 293 293 292 292
277 277 277 265 254 247 242 238 238 238 240 244 248 252 255 258 260 263 266 268 271 273 275 277 277 279 281 282 283 285 285 286 286 288 289 290 291 291 292 292 292 291 291
272 274 274 271 265 259 254 250 247 247 248 251 254 258 260 262 265 268 269 272 274 275 277 278 279 281 282 283 284 285 285 286 286 287 288 289 289 289 290 291 291 290 289
268 270 271 271 270 266 263 260 257 257 258 259 261 263 265 268 270 271 273 275 277 278 279 280 281 282 283 284 285 286 286 286 286 286 287 288 288 289 289 290 290 289 288
265 268 269 270 271 268 265 263 263 263 263 263 265 266 268 270 272 273 275 277 279 280 281 281 283 283 284 285 285 286 286 286 286 286 286 288 288 288 288 288 289 289 288
264 266 268 270 271 270 267 266 266 267 267 266 266 268 270 272 274 275 277 279 280 281 282 283 284 284 285 285 285 285 285 285 285 285 286 287 288 288 287 287 287 288 287
262 263 266 269 269 269 267 266 267 267 268 269 270 271 272 274 276 278 279 280 281 282 283 284 284 285 286 286 285 285 285 284 285 284 284 285 286 286 286 285 285 285 286
260 262 264 266 267 268 267 268 267 266 268 269 271 272 274 276 277 278 279 280 281 283 284 284 285 286 286 286 285 285 284 285 285 285 285 284 284 285 285 284 284 284 284
259 260 262 262 263 265 267 269 269 267 267 269 270 272 274 276 277 279 281 281 282 283 284 285 285 286 285 284 284 285 285 285 284 285 285 284 283 283 284 284 283 283 283
262 262 263 261 262 263 265 267 268 267 268 270 270 273 275 276 278 281 283 283 283 284 285 285 285 286 286 285 284 285 285 284 283 284 284 283 282 283 283 282 282 282 282
265 264 263 263 264 264 264 267 268 269 271 272 273 275 277 278 279 281 282 283 284 284 285 286 286 286 286 285 285 285 285 284 283 283 283 282 281 281 281 281 281 281 280
268 268 268 266 266 266 267 270 272 272 274 275 275 276 278 279 280 281 282 283 284 284 285 285 285 286 286 285 285 285 284 284 284 284 283 282 281 281 280 280 280 279 278
269 270 272 272 270 270 273 276 275 277 277 277 277 277 279 282 283 284 285 285 285 285 286 286 286 286 286 285 285 284 284 283 283 283 282 281 281 280 279 279 278 277 276
273 274 274 275 276 277 278 279 280 280 281 282 284 285 284 284 285 286 286 286 286 287 287 287 287 287 286 286 285 285 284 284 283 282 282 281 280 279 279 278 277 276 275
277 277 277 278 280 281 282 283 284 284 285 286 287 287 287 287 287 288 288 288 289 289 288 288 288 287 286 286 285 285 284 283 283 282 281 280 279 278 277 276 275 275 274
279 280 281 282 283 284 285 286 286 287 288 288 288 289 289 289 290 290 290 290 290 290 290 289 289 288 288 287 287 286 286 285 284 283 282 280 279 278 276 275 274 273 272
Height
5845 5846 5848 5850 5852 5854 5858 5861 5865 5868 5870 5873 5875 5877 5879 5880 5880 5881 5881 5881 5882 5881 5881 5881 5881 5880 5880 5879 5879 5878 5878 5877 5877 5876 5875 5875 5874 5874 5873 5873 5872 5872 5872
5844 5844 5846 5848 5850 5853 5856 5860 5863 5866 5869 5871 5874 5876 5877 5878 5879 5880 5880 5880 5881 5881 5880 5880 5880 5879 5879 5878 5878 5878 5877 5876 5876 5875 5874 5874 5873 5872 5871 5870 5870 5870 5869
5844 5845 5846 5847 5849 5852 5855 5858 5862 5865 5868 5870 5873 5874 5876 5877 5878 5879 5879 5880 5880 5880 5880 5879 5879 5879 5878 5878 5877 5877 5876 5876 5875 5874 5873 5873 5872 5871 5870 5869 5868 5867 5867
5845 5845 5846 5847 5849 5851 5855 5857 5860 5864 5866 5869 5871 5873 5875 5876 5877 5878 5878 5879 5879 5879 5879 5879 5878 5878 5877 5877 5876 5876 5875 5875 5874 5873 5872 5871 5870 5869 5868 5867 5866 5865 5864
5845 5846 5846 5848 5849 5852 5854 5857 5859 5862 5865 5868 5870 5872 5873 5875 5876 5877 5877 5878 5878 5878 5878 5877 5877 5877 5876 5876 5875 5875 5874 5873 5872 5871 5870 5869 5868 5866 5865 5864 5863 5862 5861
5847 5847 5847 5849 5850 5852 5854 5857 5859 5862 5864 5867 5869 5871 5872 5874 5875 5875 5876 5876 5876 5876 5876 5876 5875 5875 5875 5874 5874 5873 5872 5871 5870 5869 5868 5867 5865 5864 5863 5861 5860 5859 5858
5848 5848 5848 5849 5851 5853 5854 5857 5859 5861 5864 5866 5868 5869 5871 5872 5873 5874 5874 5874 5875 5875 5874 5874 5874 5873 5873 5872 5871 5871 5870 5869 5868 5867 5865 5864 5862 5861 5859 5858 5857 5855 5854
5849 5849 5850 5850 5852 5853 5855 5856 5859 5861 5863 5865 5866 5868 5869 5870 5871 5872 5872 5872 5872 5872 5872 5872 5871 5871 5870 5869 5869 5868 5867 5866 5865 5864 5862 5860 5859 5857 5855 5854 5852 5851 5850
5851 5850 5851 5851 5852 5853 5854 5856 5858 5860 5862 5863 5865 5866 5867 5868 5869 5869 5869 5869 5870 5870 5869 5869 5868 5867 5867 5866 5865 5864 5863 5862 5861 5859 5858 5856 5855 5853 5851 5849 5847 5846 5844
5851 5851 5852 5852 5853 5853 5854 5856 5857 5859 5860 5861 5862 5864 5865 5865 5866 5866 5866 5866 5866 5866 5866 5865 5864 5864 5863 5862 5861 5860 5858 5857 5856 5854 5853 5851 5850 5848 5846 5844 5842 5840 5838
5851 5851 5851 5852 5852 5853 5854 5855 5856 5857 5858 5859 5860 5861 5862 5862 5862 5862 5862 5862 5862 5862 5861 5861 5860 5859 5858 5857 5856 5854 5853 5852 5850 5849 5847 5846 5844 5842 5840 5838 5836 5834 5832
5850 5850 5850 5850 5851 5851 5852 5853 5854 5855 5856 5856 5857 5858 5858 5858 5858 5858 5858 5858 5857 5857 5856 5855 5854 5853 5852 5851 5850 5848 5847 5845 5844 5842 5841 5839 5837 5835 5834 5832 5829 5827 5825
5847 5847 5848 5848 5849 5849 5850 5850 5851 5851 5852 5853 5853 5853 5854 5854 5854 5853 5853 5852 5852 5851 5850 5849 5848 5847 5846 5844 5843 5841 5840 5838 5836 5835 5833 5832 5830 5828 5826 5824 5822 5820 5818
5844 5844 5845 5845 5845 5846 5846 5847 5847 5847 5848 5848 5848 5848 5848 5848 5848 5848 5847 5846 5846 5845 5844 5843 5842 5840 5839 5837 5835 5833 5832 5830 5828 5827 5825 5823 5821 5819 5817 5815 5813 5811 5809
5841 5841 5841 5841 5841 5842 5842 5842 5842 5842 5843 5843 5843 5843 5843 5843 5842 5841 5841 5840 5839 5838 5837 5836 5834 5833 5831 5829 5827 5825 5823 5821 5820 5818 5816 5814 5812 5810 5808 5806 5803 5801 5799
5836 5837 5837 5837 5837 5837 5837 5837 5837 5837 5837 5837 5837 5837 5836 5836 5835 5834 5833 5832 5831 5830 5829 5828 5826 5824 5822 5820 5818 5816 5814 5812 5810 5808 5806 5804 5802 5800 5798 5795 5793 5791 5789
5832 5832 5832 5832 5832 5831 5831 5831 5832 5831 5831 5831 5831 5830 5829 5828 5828 5826 5825 5824 5822 5821 5820 5818 5816 5815 5813 5810 5808 5805 5803 5802 5800 5798 5795 5793 5791 5789 5786 5784 5782 5780 5777
5826 5826 5826 5826 5826 5826 5825 5825 5825 5824 5824 5823 5823 5823 5822 5821 5819 5818 5816 5815 5813 5812 5810 5808 5806 5804 5802 5799 5797 5794 5792 5790 5789 5786 5783 5781 5779 5776 5774 5771 5770 5768 5765
5820 5820 5820 5819 5819 5819 5818 5818 5817 5816 5815 5815 5815 5814 5813 5812 5810 5809 5807 5805 5803 5801 5799 5797 5795 5793 5790 5787 5785 5781 5779 5777 5776 5773 5770 5768 5766 5764 5760 5757 5756 5754 5752
5813 5813 5812 5812 5811 5811 5810 5810 5808 5807 5807 5806 5805 5804 5803 5802 5800 5798 5796 5794 5792 5790 5788 5785 5782 5780 5777 5774 5771 5768 5765 5763 5761 5758 5756 5754 5751 5749 5745 5742 5740 5739 5738
5806 5805 5804 5804 5803 5802 5802 5801 5800 5799 5798 5797 5795 5794 5793 5791 5790 5788 5786 5783 5781 5778 5775 5772 5769 5766 5763 5760 5757 5753 5750 5747 5744 5742 5740 5737 5735 5733 5730 5726 5725 5724 5722
5799 5798 5797 5796 5795 5794 5793 5792 5790 5790 5788 5787 5786 5784 5783 5781 5779 5776 5774 5771 5768 5765 5762 5759 5755 5752 5748 5745 5741 5737 5734 5730 5727 5725 5722 5720 5717 5714 5712 5710 5708 5706 5703
5791 5790 5789 5788 5786 5785 5784 5783 5781 5780 5779 5777 5775 5773 5771 5769 5767 5764 5761 5758 5755 5752 5748 5744 5741 5737 5732 5728 5724 5721 5716 5712 5708 5706 5703 5701 5698 5695 5693 5691 5689 5686 5684
5784 5782 5781 5780 5778 5777 5776 5774 5773 5771 5769 5768 5765 5763 5760 5758 5755 5752 5748 5745 5741 5737 5733 5729 5724 5720 5715 5710 5706 5701 5697 5693 5688 5685 5682 5680 5677 5673 5671 5669 5667 5666 5664
5776 5774 5773 5772 5770 5769 5767 5766 5764 5762 5759 5757 5754 5752 5749 5746 5742 5738 5734 5730 5726 5721 5717 5712 5707 5702 5698 5692 5686 5681 5676 5671 5667 5662 5659 5657 5654 5651 5648 5646 5644 5643 5642
5768 5766 5765 5763 5762 5760 5758 5756 5754 5751 5749 5746 5743 5740 5736 5732 5728 5724 5720 5715 5710 5705 5698 5693 5687 5682 5676 5671 5665 5659 5654 5648 5642 5638 5635 5632 5628 5626 5624 5622 5620 5620 5619